Погода в Архангельске

Погода в Архангельске : погода сейчас, прогноз погоды и архив. Всё, что Вы хотите узнать о погоде в Архангельске!

Хотите узнать прогноз погоды в Архангельске? Тогда Вам сюда: Погода в Архангельске

Поиск расширенной информации на нашем сайте:

Другие новости

Новости СМИ2

Главная страница сайта

Новости сайта

03.07.2017

Напоминаем, что на нашем специализированном сайте Метеоцентр.Азия вы можете получить высокодетализированные автоматические прогнозы погоды по пунктам России, СНГ и мира в авиационном формате (включающие направление и скорость ветра, видимость, явления погоды, количество и форму облачности, нижнюю и верхнюю границу облачности).


Погода в Архангельске - сегодня

Время (UTC), дата Ветер
(°,м/с) 
Видим.   Явления Облачность Т
(°С)
Тd
(°С)
f(%) Тe
(°С)
Pmin
(гПа)
dP
(гПа)
Po
(мм)
O2
(г/м3)
Тmin Tmax R s Состояние
почвы
18 19.05.18 320 (СЗ) 10 км    ясно 
+6.3 +2.7 78 +6  1015.5  1.1  761  299           
21 19.05.18 340 (С) 20000 м    3/0 верхняя 
[Ci sp]
+1.4 +0.8 96 +2  1016.5  762  305           
00 20.05.18 240 (ЮЗ) 0500 м  туман  3/0 верхняя 
[Ci sp]
-0.9 -1 99 1016.8  0.3  762  308           
03 20.05.18 250 (З) 10 км  {туман}  1/0 верхняя 
[Ci sp]
+5.3 +2.5 82 +5  1017.1  0.3  762  301  -1.4        влажная 
06 20.05.18 260 (З) 10 км  {туман}  3/0 средняя, верхняя 
[Ac trans|Ci sp]
+12.5 +3.4 54 +14  1017.1  762  293           
09 20.05.18 240 (ЮЗ) 10 км    8/0 средняя, верхняя 
[Ac lent|Cc]
+16.7 +1 35 +17  1016.5  -0.6  762  289           
12 20.05.18 320 (СЗ) 3{11}  10 км    9/5 600 м средняя, верхняя 
[Cu Sc|Ac trans|Ci fib]
+14.1 +3.4 48 +14  1017.5  762  292           
18 20.05.18 тихо ()   10 км    3/0 средняя, верхняя 
[Ac trans|Ci fib]
+10.4 +5.5 72 +10  1020  1.4  764  296           
21 20.05.18 тихо ()   10 км    4/0 верхняя 
[Ci fib]
+3.2 +2.4 94 +3  1021.7  1.7  766  305           
00 21.05.18 130 (ЮВ) 10 км    8/0 средняя, верхняя 
[Ac trans|Ci fib]
+4.4 +4.3 99 +4  1022.7  766  303           
03 21.05.18 150 (ЮВ) 10 км    4/0 верхняя 
[Ci fib]
+8.1 +5.3 82 +8  1022.9  0.2  766  299  +1.4        влажная 
06 21.05.18 230 (ЮЗ) 10 км    3/0 средняя, верхняя 
[Ac lent|Ci sp]
+16.6 +2.4 38 +17  1022  -0.9  766  291           
09 21.05.18 240 (ЮЗ) 10 км    3/0 средняя, верхняя 
[Ac trans|Ci fib]
+21.3 +4 32 +21  1020.9  -1.1  765  285           
12 21.05.18 250 (З) 5{13}  10 км    8/0 средняя, верхняя 
[Ac lent|Ci sp]
+23.3 +4.3 29 +23  1019.7  -1.2  764  283           
15 21.05.18 250 (З) 4{12}  10 км    9/0 средняя, верхняя 
[Ac trans|Ci fib]
+22.2 +4.6 32 +22  1019.5  -0.2  764  284    +23.4       
18 21.05.18 230 (ЮЗ) 10 км    4/0 средняя, верхняя 
[Ac trans|Ci sp]
+18.7 +6.4 45 +20  1018.9  -0.7  763  287           
21 21.05.18 260 (З) 22000 м    3/0 верхняя 
[Ci sp]
+17.2 +7 51 +18  1019.8  0.9  764  289           
00 22.05.18 040 (СВ) 10 км    3/0 средняя 
[Ac trans]
+9.8 +6.7 81 +9  1022.3  2.6  766  297           
03 22.05.18 080 (В) 10 км    3/0 средняя, верхняя 
[Ac trans|Ci sp]
+10.9 +2.5 56 +11  1025.5  3.1  768  297  +8.4        сухая 
06 22.05.18 130 (ЮВ) 10 км    1/0 верхняя 
[Ci sp]
+15.2 +3.7 46 +15  1026  0.5  769  293           
09 22.05.18 160 (Ю) 10 км    ясно 
+18.7 +5.3 41 +19  1025.5  -0.5  768  289           
12 22.05.18 140 (ЮВ) 10 км    ясно 
+21.8 +6.4 37 +22  1023.4  -2.1  767  285           
15 22.05.18 130 (ЮВ) 10 км    ясно 
+23.5 +7.4 36 +24  1020.3  -3  765  282    +23.7       
18 22.05.18 120 (ЮВ) 10 км    5/0 средняя 
[Ac lent]
+19.3 +8.4 49 +20  1018.2  -2.1  763  286           
21 22.05.18 170 (Ю) 19000 м    8/0 средняя, верхняя 
[Ac trans|Ci fib]
+13.6 +9.6 77 +15  1015.8  -2.4  761  290           
Время (UTC), дата Ветер
(°,м/с) 
Видим.   Явления Облачность Т
(°С)
Тd
(°С)
f(%) Тe
(°С)
Pmin
(гПа)
dP
(гПа)
Po
(мм)
O2
(г/м3)
Тmin Tmax R s Состояние
почвы

Для получения пояснительной информации подведите курсор к названию столбца.

ПОГОДА в Архангельске - архив

Всё, что Вы хотите узнать о погоде в Архангельске - удобно и подробно!

Выберите нужную дату (начиная с 1 января 2015* года) и нажмите кнопку "Найти".
Будут отображены архивные сводки погоды по пункту Архангельск, начиная с указанной даты.


Отображать данные в формате CSV (для использования в таблицах Excel)


Внимание! Наш архив погоды предназначен исключительно для личного некоммерческого использования в познавательных целях. Если Вам необходимы официальные справки о состоянии погоды (для производственных, юридических, коммерческих и т.п. целей), обращайтесь в органы Росгидромета.

*Примечание: данная дата относится к архиву по метеостанциям СССР (Россия, СНГ, Балтия).
Архив по метеостанциям Зарубежной Европы и Азии (кроме Китая) хранится 10 дней, по другим регионам земного шара (Китай, Африка, Америка, Австралия, Океания) - 1 день.

Архангельск - район местоположения метеостанции


Название, широта, долгота, высота метеостанции:
Архангельск (город) 64.5°ш. 40.7°д. 8 м над ур. моря [Российская Федерация]

Дополнительная информация

В oтличие oт бoльшинства пoгoдных сайтoв мы публикуем пoдрoбную метеoинфoрмацию в детальнoм прoфессиoнальнoм фoрмате.

Характеристики температуры и влажнoсти вoздуха измеряются на высoте 2 м в тени вдали oт зданий и деревьев.
Скoрoсть ветра измеряется на высoте 10 м (на урoвне рoста челoвека скoрoсть ветра ниже в 1.5-2 раза). Если метеoстанция нахoдится в гoрoде или в лесу, тo скoрoсть ветра занижена на 2-4 м/с пo сравнению с oткрытым местoм. Скoрoсть ветра над акватoриями крупных рек и oзёр, а также на вершинах хoлмoв на 2-5 м/с выше, чем в oбычных услoвиях.
Атмoсфернoе давление в разных тoчках местнoсти мoжет значительнo oтличаться oт давления на метеoстанции, в зависимoсти oт услoвий рельефа (при пoдъёме на 10 м давление пoнижается примернo на 1 мм рт.ст.).